轨道通信卫星FM21星 (ORBCOMM FM21)

导读

ORBCOMM FM 21是ORBCOMM低轨卫星通信系统的成员,1998年9月23日由ORB(轨道通信公司)发射,属于商业卫星。 该卫星运行在近地轨道,主要为全球用户提供机器对机器(M2M)的短数据通信服务,支持远程设备监控、船舶跟踪、资产管理等应用,补充了ORBCOMM星座的全球覆盖能力,是早期低轨卫星物联网通信探索的重要组成部分,为后续低轨卫星通信发展积累了实践经验。

基本信息
目录编号:
25475
目录名称:
ORBCOMM FM 21
国际标识:
1998-053A
轨道中心:
EARTH
卫星名称:
轨道通信卫星FM21星
卫星全名:
轨道通信卫星FM21星 (ORBCOMM FM21)
卫星状态:
在轨 (已飞行10124 天)
发射日期:
1998-09-23 UTC
国别 :
(ORB)
星等 :
--
轨道信息
数据来源 国际轨道数据 AOE轨道数据
星历时间 2026-06-11T04:08:16+0800
2天前
查看轨道信息
2026-06-09T17:00:00+0800
3天前
查看轨道信息
半长轴 7142.666km 7142.675km
偏心率 0.0000869 0.000001
轨道倾角 45.009° 45.008°
近地点辐角 205.571° 119.109°
升交点赤经 9.877° 16.821°
平近点角 154.509° 213.467°
近地点 763.908km 764.53km
远地点 765.15km 764.546km
周期 100.127分钟 100.127分钟
每日圈数 14.381768 14.38174
详细信息
固有亮度:
8
最大亮度:
6.9
平衡模式:
三轴稳定
覆盖范围:
全球
运营商:
轨道通信公司
运营商所在国:
美国
制造商(研发单位):
轨道ATK公司
制造商所在国:
美国
使用方式:
暂无
卫星简介
轨道通信FM(Orbcomm FM)是一系列低地球轨道通信卫星,由美国卫星通信公司 Orbcomm运营。 截至2015年12月,已有63颗此类卫星绕地球运行。该卫星已退役。
2D轨道图
3D轨道图
轨道高度分析图
轨道倾角分析图
轨道综合分析图
查看轨道综合分析图